Regional Weather Roundup
Issued by NWS

Home | Current Version | Previous Version | Text Only | Print | Product List | Glossary Off
Versions: 1 2 3 4 5 6 7 8 9 10 11 12 13 14 15 16 17 18 19 20 21 22 23 24 25 26 27 28 29 30 31 32 33 34 35 36 37 38 39 40 41 42 43 44 45 46 47 48 49 50

101
ASUS43 KLSX 270307
RWRMO

WEATHER SUMMARY FOR MISSOURI
NATIONAL WEATHER SERVICE SPRINGFIELD MO
1000 PM CDT WED APR 26 2017

NOTE: "FAIR" INDICATES FEW OR NO CLOUDS BELOW 12,000 FEET WITH NO
       SIGNIFICANT WEATHER AND/OR OBSTRUCTIONS TO VISIBILITY.
       CURRENT SKY AND/OR WEATHER CONDITIONS ARE NOT AVAILABLE FOR
       CHILLICOTHE AND FARMINGTON.

MOZ001>031-035>038-043-044-053-054-270400-
...NORTHERN AND WESTERN MISSOURI...

CITY           SKY/WX    TMP DP  RH WIND       PRES   REMARKS
KANSAS CTY INT CLOUDY    44  35  70 NW8       29.66S
KANSAS C DTWN  LGT RAIN  45  38  76 NW10      29.66R
LEE`S SUMMIT   CLOUDY    45  38  76 NW14G21   29.66R
ST JOSEPH      CLOUDY    44  36  73 NW12      29.68R
CHILLICOTHE      N/A     45  39  79 VRB7      29.64R
KIRKSVILLE     CLOUDY    45  43  93 W10       29.59R

$$
MOZ066>068-077>081-088>096-101>105-270400-
...SOUTHWEST MISSOURI...

CITY           SKY/WX    TMP DP  RH WIND       PRES   REMARKS
SPRINGFIELD    CLOUDY    45  43  93 NW10      29.64R
JOPLIN         CLOUDY    47  45  93 W8        29.69R
BRANSON        CLOUDY    45  45 100 NW8       29.67R

$$
MOZ032>034-039>042-045>050-055>058-069>072-270400-
...CENTRAL MISSOURI...

CITY           SKY/WX    TMP DP  RH WIND       PRES   REMARKS
COLUMBIA       LGT RAIN  47  46  97 W10       29.56R
JEFFERSON CITY RAIN      49  45  86 NW13      29.56R FOG
ROLLA          LGT RAIN  45  45 100 W13       29.53R
SEDALIA        LGT RAIN  46  46 100 NW12      29.62R FOG
WHITEMAN AFB   DRIZZLE   44  44 100 NW10      29.62R FOG
OSAGE BEACH    LGT RAIN  46  45  96 W10G17    29.61R

$$
MOZ051-052-059>065-270400-
...EAST CENTRAL MISSOURI...

CITY           SKY/WX    TMP DP  RH WIND       PRES   REMARKS
ST LOUIS INTL  CLOUDY    62  58  86 S14       29.45F
SPIRIT OF STL  RAIN      55  54  96 W15       29.45R FOG
ST CHARLES     CLOUDY    61  60  97 S15       29.43F

$$
MOZ072>076-082>087-097>100-106>115-270400-
...SOUTH CENTRAL AND SOUTHEAST MISSOURI...

CITY           SKY/WX    TMP DP  RH WIND       PRES   REMARKS
CAPE GIRARDEAU LGT RAIN  58  56  93 SE13      29.54R
FARMINGTON     RAIN      59  57  93 SE13G23   29.46F
POPLAR BLUFF   LGT RAIN  60  59  96 SE17G24   29.46F
WEST PLAINS    LGT RAIN  47  45  93 W8G18     29.58R

$$



USA.gov is the U.S. government's official web portal to all federal, state and local government web resources and services.